When you browse on this site, cookies collect data to enhance your experience and personalize the content and advertising you see.
Visit our Privacy Policy to learn more. By continuing to use the site, you agree to this use of cookies and data.
  • în România
  • Lista ţărilor
  • Pe 7 zile
  • Temperatura apei
  • Meteo pe hartă
  • Widget-uri
  • user-avatar
    Intrare

    Meteo pe oră la Capri

    Astăzi, 20 Noiembrie, Miercuri

    Timp Temperatura Precipitaţii Vânt Presiune Umiditate
    00:00 +14°C° 0.3 mm 3 m/s 745 mmHg 65%
    01:00 +15°C° 0.3 mm 4 m/s 745 mmHg 65%
    02:00 +16°C° 0.3 mm 3 m/s 744 mmHg 63%
    03:00 +16°C° 0.3 mm 3 m/s 744 mmHg 61%
    04:00 +16°C° 0.3 mm 2 m/s 744 mmHg 59%
    05:00 +16°C° 0.2 mm 3 m/s 744 mmHg 61%
    06:00 +16°C° 0.2 mm 3 m/s 744 mmHg 63%
    07:00 +15°C° 0.2 mm 4 m/s 744 mmHg 64%
    08:00 +15°C° 0.1 mm 4 m/s 745 mmHg 65%
    09:00 +15°C° 0.1 mm 4 m/s 745 mmHg 65%
    10:00 +15°C° 0.1 mm 4 m/s 746 mmHg 66%
    11:00 +15°C° 0.2 mm 4 m/s 746 mmHg 66%
    12:00 +15°C° 0.2 mm 4 m/s 746 mmHg 66%
    13:00 +15°C° 0.2 mm 5 m/s 746 mmHg 67%
    14:00 +15°C° 0.2 mm 5 m/s 746 mmHg 69%
    15:00 +15°C° 0.2 mm 6 m/s 746 mmHg 71%
    16:00 +15°C° 0.2 mm 7 m/s 746 mmHg 73%
    17:00 +15°C° 0.2 mm 6 m/s 746 mmHg 70%
    18:00 +15°C° 0.2 mm 6 m/s 746 mmHg 67%
    19:00 +15°C° 0.2 mm 6 m/s 747 mmHg 64%
    20:00 +15°C° 0 mm 5 m/s 747 mmHg 61%
    21:00 +15°C° 0 mm 4 m/s 747 mmHg 58%
    22:00 +15°C° 0 mm 4 m/s 748 mmHg 55%
    23:00 +16°C° 0 mm 3 m/s 747 mmHg 54%

    Mâine, 21 Noiembrie, Joi

    Timp Temperatura Precipitaţii Vânt Presiune Umiditate
    00:00 +16°C° 0 mm 3 m/s 747 mmHg 52%
    01:00 +16°C° 0 mm 2 m/s 747 mmHg 51%
    02:00 +16°C° 0 mm 3 m/s 747 mmHg 52%
    03:00 +16°C° 0 mm 3 m/s 747 mmHg 53%
    04:00 +16°C° 0 mm 3 m/s 747 mmHg 54%
    05:00 +16°C° 0 mm 3 m/s 747 mmHg 55%
    06:00 +15°C° 0 mm 4 m/s 747 mmHg 55%
    07:00 +15°C° 0 mm 4 m/s 746 mmHg 56%
    08:00 +15°C° 0 mm 4 m/s 747 mmHg 55%
    09:00 +16°C° 0 mm 3 m/s 747 mmHg 55%
    10:00 +16°C° 0 mm 3 m/s 747 mmHg 54%
    11:00 +16°C° 0 mm 3 m/s 746 mmHg 55%
    12:00 +15°C° 0 mm 4 m/s 746 mmHg 56%
    13:00 +15°C° 0 mm 4 m/s 746 mmHg 57%
    14:00 +15°C° 0.1 mm 4 m/s 746 mmHg 58%
    15:00 +15°C° 0.1 mm 4 m/s 746 mmHg 59%
    16:00 +15°C° 0.1 mm 4 m/s 746 mmHg 60%
    17:00 +16°C° 0.1 mm 3 m/s 746 mmHg 60%
    18:00 +16°C° 0.1 mm 3 m/s 746 mmHg 61%
    19:00 +16°C° 0.1 mm 3 m/s 746 mmHg 61%
    20:00 +16°C° 0.3 mm 3 m/s 746 mmHg 63%
    21:00 +15°C° 0.3 mm 4 m/s 746 mmHg 64%
    22:00 +15°C° 0.3 mm 5 m/s 747 mmHg 66%
    23:00 +15°C° 0.4 mm 5 m/s 747 mmHg 66%

    Poimâine, 22 Noiembrie, Vineri

    Timp Temperatura Precipitaţii Vânt Presiune Umiditate
    00:00 +15°C° 0.4 mm 5 m/s 747 mmHg 67%
    01:00 +15°C° 0.4 mm 5 m/s 747 mmHg 68%
    02:00 +15°C° 0.3 mm 5 m/s 746 mmHg 68%
    03:00 +15°C° 0.3 mm 5 m/s 746 mmHg 68%
    04:00 +15°C° 0.3 mm 6 m/s 746 mmHg 69%
    05:00 +15°C° 0.4 mm 5 m/s 746 mmHg 68%
    06:00 +15°C° 0.4 mm 5 m/s 746 mmHg 68%
    07:00 +15°C° 0.4 mm 5 m/s 746 mmHg 68%
    08:00 +15°C° 0.4 mm 5 m/s 747 mmHg 67%
    09:00 +16°C° 0.4 mm 5 m/s 747 mmHg 67%
    10:00 +16°C° 0.4 mm 5 m/s 747 mmHg 66%
    11:00 +17°C° 0.3 mm 4 m/s 747 mmHg 66%
    12:00 +17°C° 0.3 mm 4 m/s 747 mmHg 65%
    13:00 +17°C° 0.3 mm 3 m/s 746 mmHg 65%
    14:00 +17°C° 0.4 mm 3 m/s 746 mmHg 65%
    15:00 +17°C° 0.4 mm 3 m/s 746 mmHg 65%
    16:00 +17°C° 0.4 mm 3 m/s 746 mmHg 66%
    17:00 +17°C° 0.4 mm 3 m/s 746 mmHg 66%
    18:00 +17°C° 0.4 mm 4 m/s 746 mmHg 67%
    19:00 +17°C° 0.4 mm 4 m/s 747 mmHg 67%
    20:00 +17°C° 0.2 mm 4 m/s 747 mmHg 67%
    21:00 +17°C° 0.2 mm 4 m/s 747 mmHg 68%
    22:00 +17°C° 0.2 mm 4 m/s 747 mmHg 68%
    23:00 +17°C° 0.1 mm 4 m/s 747 mmHg 68%

    23 Noiembrie, Sâmbătă

    Timp Temperatura Precipitaţii Vânt Presiune Umiditate
    00:00 +16°C° 0.1 mm 5 m/s 747 mmHg 68%
    01:00 +16°C° 0.1 mm 5 m/s 747 mmHg 69%
    02:00 +16°C° 0 mm 5 m/s 746 mmHg 69%
    03:00 +16°C° 0 mm 5 m/s 746 mmHg 70%
    04:00 +16°C° 0 mm 5 m/s 746 mmHg 70%
    05:00 +16°C° 0 mm 6 m/s 746 mmHg 71%
    06:00 +16°C° 0 mm 7 m/s 745 mmHg 71%
    07:00 +16°C° 0 mm 7 m/s 745 mmHg 71%
    08:00 +16°C° 0 mm 8 m/s 745 mmHg 71%
    09:00 +16°C° 0 mm 8 m/s 745 mmHg 71%
    10:00 +16°C° 0 mm 9 m/s 745 mmHg 71%
    11:00 +16°C° 0 mm 8 m/s 745 mmHg 71%
    12:00 +16°C° 0 mm 8 m/s 744 mmHg 71%
    13:00 +17°C° 0 mm 8 m/s 744 mmHg 71%
    14:00 +17°C° 0 mm 8 m/s 744 mmHg 70%
    15:00 +17°C° 0 mm 8 m/s 743 mmHg 70%
    16:00 +17°C° 0 mm 8 m/s 743 mmHg 69%
    17:00 +17°C° 0 mm 8 m/s 743 mmHg 69%
    18:00 +17°C° 0 mm 8 m/s 743 mmHg 69%
    19:00 +17°C° 0 mm 8 m/s 743 mmHg 69%
    20:00 +17°C° 0.2 mm 8 m/s 743 mmHg 70%
    21:00 +17°C° 0.2 mm 8 m/s 743 mmHg 71%
    22:00 +17°C° 0.2 mm 9 m/s 743 mmHg 72%
    23:00 +17°C° 0.7 mm 9 m/s 743 mmHg 71%

    24 Noiembrie, Duminică

    Timp Temperatura Precipitaţii Vânt Presiune Umiditate
    00:00 +17°C° 0.7 mm 10 m/s 742 mmHg 70%
    01:00 +17°C° 0.7 mm 10 m/s 742 mmHg 69%
    02:00 +17°C° 0.8 mm 10 m/s 742 mmHg 70%
    03:00 +16°C° 0.8 mm 10 m/s 741 mmHg 71%
    04:00 +16°C° 0.8 mm 9 m/s 741 mmHg 72%
    05:00 +16°C° 1.1 mm 10 m/s 741 mmHg 75%
    06:00 +16°C° 1.1 mm 11 m/s 740 mmHg 78%
    07:00 +14°C° 1.1 mm 12 m/s 740 mmHg 81%
    08:00 +14°C° 2.9 mm 10 m/s 740 mmHg 82%
    09:00 +13°C° 2.9 mm 9 m/s 740 mmHg 82%
    10:00 +14°C° 2.9 mm 7 m/s 740 mmHg 83%
    11:00 +14°C° 2.7 mm 7 m/s 740 mmHg 84%
    12:00 +14°C° 2.7 mm 6 m/s 739 mmHg 86%
    13:00 +13°C° 2.7 mm 5 m/s 739 mmHg 87%
    14:00 +14°C° 2.4 mm 7 m/s 739 mmHg 86%
    15:00 +13°C° 2.4 mm 9 m/s 739 mmHg 85%
    16:00 +14°C° 2.4 mm 12 m/s 738 mmHg 83%
    17:00 +14°C° 0.3 mm 10 m/s 738 mmHg 82%
    18:00 +15°C° 0.3 mm 8 m/s 738 mmHg 82%
    19:00 +15°C° 0.3 mm 6 m/s 738 mmHg 81%
    20:00 +15°C° 0.5 mm 6 m/s 739 mmHg 80%
    21:00 +15°C° 0.5 mm 5 m/s 739 mmHg 79%
    22:00 +15°C° 0.5 mm 5 m/s 739 mmHg 78%
    23:00 +15°C° 0.3 mm 5 m/s 739 mmHg 78%

    25 Noiembrie, Luni

    Timp Temperatura Precipitaţii Vânt Presiune Umiditate
    00:00 +15°C° 0.3 mm 5 m/s 740 mmHg 77%
    01:00 +15°C° 0.3 mm 5 m/s 740 mmHg 77%
    02:00 +16°C° 0.1 mm 6 m/s 740 mmHg 74%
    03:00 +16°C° 0.1 mm 7 m/s 740 mmHg 72%
    04:00 +16°C° 0.1 mm 8 m/s 740 mmHg 70%
    05:00 +16°C° 0 mm 9 m/s 740 mmHg 68%
    06:00 +17°C° 0 mm 10 m/s 741 mmHg 66%
    07:00 +17°C° 0 mm 11 m/s 741 mmHg 65%
    08:00 +17°C° 0 mm 10 m/s 742 mmHg 65%
    09:00 +17°C° 0 mm 10 m/s 742 mmHg 64%
    10:00 +17°C° 0 mm 10 m/s 743 mmHg 64%
    11:00 +17°C° 0 mm 9 m/s 743 mmHg 65%
    12:00 +17°C° 0 mm 7 m/s 743 mmHg 65%
    13:00 +17°C° 0 mm 6 m/s 743 mmHg 66%
    14:00 +17°C° 0 mm 6 m/s 743 mmHg 66%
    15:00 +17°C° 0 mm 6 m/s 743 mmHg 67%
    16:00 +17°C° 0 mm 5 m/s 744 mmHg 67%
    17:00 +17°C° 0 mm 5 m/s 744 mmHg 68%
    18:00 +17°C° 0 mm 5 m/s 744 mmHg 69%
    19:00 +17°C° 0 mm 6 m/s 745 mmHg 70%
    20:00 +17°C° 0 mm 5 m/s 745 mmHg 71%
    21:00 +17°C° 0 mm 5 m/s 745 mmHg 72%
    22:00 +18°C° 0 mm 4 m/s 745 mmHg 73%
    23:00 +17°C° 0 mm 4 m/s 745 mmHg 73%
    Arată mai mult